Winchester, VA

6:59 AM EDT on July 22, 2017 (GMT -0400)
Winchester Regional

Weather History for KOKV - May, 2013

Change the Weather History Date:

Tuesday, May 7, 2013

  Actual Average Record
Temperature  
Mean Temperature 56 °F -  
Max Temperature 60 °F 72 °F 91 °F (2000)
Min Temperature 53 °F 50 °F 33 °F (2005)
Degree Days  
Heating Degree Days 8    
Growing Degree Days 6 (Base 50)    
Moisture  
Dew Point 57 °F    
Average Humidity 100    
Maximum Humidity 100    
Minimum Humidity 94    
Precipitation  
Precipitation 1.35 in - - ()
Sea Level Pressure  
Sea Level Pressure 29.99 in    
Wind  
Wind Speed 5 mph (ENE)    
Max Wind Speed 10 mph    
Max Gust Speed 17 mph    
Visibility 6 miles    
Events Rain , Thunderstorm    
Averages and records for this station are not official NWS values.
T = Trace of Precipitation, MM = Missing Value Source: NWS Daily Summary

Daily Weather History Graph

Daily Weather History Graph

Search for Another Location

Airport or City:

Trip Planner

Search our weather history database for the weather conditions in past years. The results will help you decide how hot, cold, wet, or windy it might be!

Date:

Astronomy

May. 07, 2013 Rise Set
Actual Time 6:07 AM EDT 8:11 PM EDT
Civil Twilight 5:37 AM EDT 8:41 PM EDT
Nautical Twilight 5:01 AM EDT 9:17 PM EDT
Astronomical Twilight 4:22 AM EDT 9:56 PM EDT
Moon 4:39 AM EDT (5/7) 6:10 PM EDT (5/7)
Length of Visible Light 15h 03m
Length of Day
14h 04m
Waning Crescent, 5% of the Moon is Illuminated
May 7
Waning Crescent
May 9
New
May 18
First Quarter
May 25
Full
May 31
Last Quarter

Hourly Weather History & Observations

Time (EDT) Temp. Dew Point Humidity Pressure Visibility Wind Dir Wind Speed Gust Speed Precip Events Conditions
12:15 AM 55.4 °F 55.4 °F 100% 30.05 in 3.0 mi East 4.6 mph - N/A   Overcast
12:35 AM 55.4 °F 55.4 °F 100% 30.05 in 5.0 mi NE 3.5 mph - N/A   Overcast
12:55 AM 55.4 °F 55.4 °F 100% 30.04 in 4.0 mi East 6.9 mph - N/A   Overcast
1:15 AM 55.4 °F 55.4 °F 100% 30.05 in 4.0 mi NE 5.8 mph - N/A   Overcast
1:35 AM 55.4 °F 55.4 °F 100% 30.04 in 3.0 mi ENE 4.6 mph - N/A   Overcast
1:55 AM 55.4 °F 55.4 °F 100% 30.03 in 4.0 mi ENE 4.6 mph - N/A   Overcast
2:15 AM 55.4 °F 55.4 °F 100% 30.02 in 3.0 mi Calm Calm - N/A   Overcast
2:35 AM 55.4 °F 55.4 °F 100% 30.02 in 3.0 mi NE 4.6 mph - N/A   Light Drizzle
2:55 AM 55.4 °F 55.4 °F 100% 30.01 in 2.5 mi NE 4.6 mph - N/A   Overcast
3:15 AM 55.4 °F 55.4 °F 100% 30.01 in 2.5 mi NE 5.8 mph - N/A   Light Drizzle
3:35 AM 55.4 °F 55.4 °F 100% 30.00 in 2.5 mi ENE 4.6 mph - N/A   Drizzle
4:15 AM 55.4 °F 55.4 °F 100% 30.00 in 5.0 mi NE 4.6 mph - N/A   Overcast
4:35 AM 55.4 °F 55.4 °F 100% 30.00 in 5.0 mi NE 4.6 mph - N/A Rain Light Rain
4:55 AM 55.4 °F 55.4 °F 100% 30.00 in 5.0 mi ENE 4.6 mph - N/A   Overcast
5:15 AM 55.4 °F 55.4 °F 100% 30.00 in 5.0 mi ENE 3.5 mph - N/A   Overcast
5:35 AM 55.4 °F 55.4 °F 100% 30.00 in 5.0 mi ENE 5.8 mph - 0.01 in   Heavy Drizzle
5:55 AM 55.4 °F 55.4 °F 100% 30.00 in 4.0 mi ENE 3.5 mph - 0.02 in Rain Heavy Rain
6:15 AM 55.4 °F 55.4 °F 100% 30.00 in 5.0 mi NE 4.6 mph - 0.02 in Rain Light Rain
6:35 AM 55.4 °F 55.4 °F 100% 30.01 in 5.0 mi NE 4.6 mph - 0.02 in Rain Light Rain
6:55 AM 55.4 °F 55.4 °F 100% 30.01 in 5.0 mi NE 4.6 mph - 0.02 in Rain Light Rain
7:15 AM 55.4 °F 55.4 °F 100% 30.01 in 5.0 mi NE 3.5 mph - N/A   Overcast
7:35 AM 55.4 °F 55.4 °F 100% 30.01 in 5.0 mi ENE 3.5 mph - N/A   Overcast
7:55 AM 55.4 °F 55.4 °F 100% 30.01 in 7.0 mi NE 5.8 mph - N/A   Overcast
8:15 AM 55.4 °F 55.4 °F 100% 30.01 in 7.0 mi NE 4.6 mph - N/A Rain Light Rain
8:35 AM 57.2 °F 57.2 °F 100% 30.02 in 7.0 mi ENE 5.8 mph - N/A Rain Rain
8:55 AM 55.4 °F 55.4 °F 100% 30.02 in 4.0 mi ENE 5.8 mph - 0.01 in Rain Rain
9:15 AM 57.2 °F 57.2 °F 100% 30.02 in 4.0 mi ENE 5.8 mph - 0.01 in Rain Light Rain
9:35 AM 55.4 °F 55.4 °F 100% 30.02 in 4.0 mi NE 8.1 mph - 0.02 in   Light Drizzle
9:55 AM 55.4 °F 55.4 °F 100% 30.02 in 3.0 mi ENE 5.8 mph - 0.02 in   Mist
10:15 AM 55.4 °F 55.4 °F 100% 30.03 in 4.0 mi NE 4.6 mph - N/A Rain Rain
10:35 AM 55.4 °F 55.4 °F 100% 30.03 in 3.0 mi ENE 4.6 mph - 0.01 in Rain Light Rain
10:55 AM 55.4 °F 55.4 °F 100% 30.03 in 4.0 mi ENE 3.5 mph - 0.03 in Rain Rain
11:15 AM 57.2 °F 57.2 °F 100% 30.03 in 5.0 mi NE 3.5 mph - 0.04 in Rain Light Rain
11:35 AM - - N/A% - - North - - N/A   Unknown
12:15 PM 59.0 °F 59.0 °F 100% 30.03 in 7.0 mi NNE 4.6 mph - 0.01 in Rain Rain
12:35 PM 57.2 °F 57.2 °F 100% 30.03 in 5.0 mi Calm Calm - 0.04 in Rain Rain
12:55 PM 57.2 °F 57.2 °F 100% 30.02 in 4.0 mi NNE 6.9 mph - 0.07 in Rain Rain
1:15 PM 57.2 °F 57.2 °F 100% 30.00 in 1.5 mi North 9.2 mph - 0.13 in Rain Heavy Rain
1:35 PM 57.2 °F 57.2 °F 100% 30.00 in 7.0 mi NNE 6.9 mph - 0.17 in Rain Light Rain
1:55 PM 57.2 °F 57.2 °F 100% 30.00 in 2.5 mi North 8.1 mph - 0.28 in Rain Heavy Rain
2:15 PM 55.4 °F 55.4 °F 100% 29.99 in 3.0 mi North 6.9 mph - 0.05 in Rain Heavy Rain
2:35 PM 55.4 °F 55.4 °F 100% 29.99 in 3.0 mi North 4.6 mph - 0.13 in Rain Heavy Rain
2:55 PM 55.4 °F 55.4 °F 100% 29.97 in 1.8 mi North 5.8 mph - 0.24 in Rain Heavy Rain
3:15 PM 57.2 °F 57.2 °F 100% 29.98 in 5.0 mi NE 4.6 mph - 0.03 in Rain , Thunderstorm Light Thunderstorms and Rain
3:35 PM 59.0 °F 59.0 °F 100% 29.97 in 7.0 mi ENE 3.5 mph - 0.03 in Thunderstorm Overcast
3:55 PM 59.0 °F 59.0 °F 100% 29.97 in 7.0 mi NNE 4.6 mph - 0.03 in Rain Rain
4:15 PM 60.8 °F 60.8 °F 100% 29.96 in 10.0 mi NE 5.8 mph - N/A   Overcast
4:35 PM 60.8 °F 60.8 °F 100% 29.95 in 7.0 mi NE 4.6 mph - N/A   Overcast
4:55 PM 60.8 °F 60.8 °F 100% 29.95 in 7.0 mi ENE 3.5 mph - N/A Rain Rain
5:15 PM 60.8 °F 60.8 °F 100% 29.95 in 10.0 mi NE 4.6 mph - N/A Rain Light Rain
5:55 PM 60.8 °F 60.8 °F 100% 29.94 in 5.0 mi NNE 4.6 mph - 0.01 in Rain Rain
6:15 PM 60.8 °F 60.8 °F 100% 29.94 in 10.0 mi ENE 5.8 mph - 0.01 in   Drizzle
6:35 PM 60.8 °F 60.8 °F 100% 29.93 in 10.0 mi ENE 5.8 mph - 0.02 in   Overcast
6:55 PM 60.8 °F 60.8 °F 100% 29.93 in 10.0 mi ENE 5.8 mph - 0.02 in   Mostly Cloudy
7:15 PM 60.8 °F 60.8 °F 100% 29.93 in 10.0 mi NE 3.5 mph - N/A   Mostly Cloudy
7:55 PM 60.8 °F 60.8 °F 100% 29.94 in 10.0 mi NE 5.8 mph - N/A   Overcast
8:15 PM 60.8 °F 60.8 °F 100% 29.94 in 10.0 mi East 4.6 mph - N/A   Overcast
8:35 PM 59.0 °F 59.0 °F 100% 29.94 in 10.0 mi East 10.4 mph - N/A   Overcast
8:55 PM 60.8 °F 59.0 °F 94% 29.94 in 10.0 mi East 10.4 mph 17.3 mph N/A   Overcast
9:15 PM 59.0 °F 59.0 °F 100% 29.94 in 7.0 mi East 8.1 mph - N/A Rain Light Rain
9:35 PM 59.0 °F 59.0 °F 100% 29.95 in 10.0 mi East 9.2 mph 16.1 mph N/A   Overcast
9:55 PM 59.0 °F 59.0 °F 100% 29.95 in 7.0 mi East 6.9 mph - 0.02 in Rain , Thunderstorm Rain
10:15 PM 59.0 °F 59.0 °F 100% 29.95 in 7.0 mi East 8.1 mph - 0.02 in Rain Light Rain
10:35 PM 59.0 °F 59.0 °F 100% 29.95 in 7.0 mi East 5.8 mph - 0.16 in Rain Light Rain
10:55 PM 59.0 °F 59.0 °F 100% 29.95 in 10.0 mi SE 3.5 mph - 0.16 in   Mostly Cloudy
11:15 PM 55.4 °F 53.6 °F 94% 29.95 in 10.0 mi Calm Calm - N/A Rain Rain
11:35 PM 53.6 °F 53.6 °F 100% 30.00 in 1.8 mi SE 9.2 mph 16.1 mph 0.28 in Rain Heavy Rain
11:55 PM 53.6 °F 53.6 °F 100% 29.97 in 7.0 mi SW 5.8 mph - 0.38 in Rain Rain